TimeAKDT,TemperatureF,Dew PointF,Humidity,Sea Level PressureIn,VisibilityMPH,Wind Direction,Wind SpeedMPH,Gust SpeedMPH,PrecipitationIn,Events,Conditions,WindDirDegrees,DateUTC
12:16 AM,35.6,30.2,81,30.02,10.0,ESE,8.1,-,N/A,,Overcast,110,2013-03-12 08:16:00
12:36 AM,35.6,30.2,81,30.00,10.0,East,8.1,-,N/A,,Mostly Cloudy,90,2013-03-12 08:36:00
12:56 AM,35.6,28.4,75,30.00,10.0,ESE,6.9,-,N/A,,Partly Cloudy,120,2013-03-12 08:56:00
1:16 AM,33.8,28.4,81,29.99,10.0,SE,8.1,-,N/A,,Partly Cloudy,140,2013-03-12 09:16:00
1:36 AM,33.8,28.4,81,29.98,10.0,SE,8.1,-,N/A,,Clear,140,2013-03-12 09:36:00
1:56 AM,33.8,28.4,81,29.97,10.0,SSE,5.8,-,N/A,,Partly Cloudy,150,2013-03-12 09:56:00
2:16 AM,32.0,26.6,80,29.96,10.0,SE,5.8,-,N/A,,Scattered Clouds,140,2013-03-12 10:16:00
2:36 AM,32.0,26.6,80,29.96,10.0,SSE,4.6,-,N/A,,Scattered Clouds,150,2013-03-12 10:36:00
2:56 AM,33.8,26.6,75,29.94,10.0,SE,5.8,-,N/A,,Mostly Cloudy,140,2013-03-12 10:56:00
3:16 AM,33.8,28.4,81,29.94,10.0,Calm,Calm,-,N/A,,Mostly Cloudy,0,2013-03-12 11:16:00
3:36 AM,32.0,26.6,80,29.93,10.0,SE,3.5,-,N/A,,Mostly Cloudy,130,2013-03-12 11:36:00
3:56 AM,33.8,28.4,81,29.91,10.0,ESE,9.2,-,N/A,,Mostly Cloudy,110,2013-03-12 11:56:00
4:16 AM,33.8,28.4,81,29.91,10.0,SE,5.8,-,N/A,,Partly Cloudy,140,2013-03-12 12:16:00
4:36 AM,33.8,28.4,81,29.90,10.0,ESE,8.1,-,N/A,,Scattered Clouds,110,2013-03-12 12:36:00
4:56 AM,33.8,28.4,81,29.89,10.0,ESE,8.1,-,N/A,,Clear,110,2013-03-12 12:56:00
5:16 AM,33.8,28.4,81,29.88,10.0,ESE,10.4,-,N/A,,Mostly Cloudy,110,2013-03-12 13:16:00
5:36 AM,33.8,28.4,81,29.87,10.0,SE,9.2,-,N/A,,Scattered Clouds,140,2013-03-12 13:36:00
5:56 AM,32.0,26.6,80,29.86,10.0,SE,8.1,-,N/A,,Partly Cloudy,130,2013-03-12 13:56:00
6:16 AM,33.8,28.4,81,29.85,10.0,ESE,10.4,-,N/A,,Partly Cloudy,120,2013-03-12 14:16:00
6:36 AM,32.0,26.6,80,29.84,10.0,SE,9.2,-,N/A,,Partly Cloudy,140,2013-03-12 14:36:00
6:56 AM,33.8,26.6,75,29.84,10.0,ESE,8.1,-,N/A,,Partly Cloudy,120,2013-03-12 14:56:00
7:16 AM,33.8,26.6,75,29.82,10.0,ESE,9.2,-,N/A,,Partly Cloudy,120,2013-03-12 15:16:00
7:36 AM,32.0,26.6,80,29.82,10.0,SE,9.2,-,N/A,,Partly Cloudy,130,2013-03-12 15:36:00
7:56 AM,33.8,26.6,75,29.81,10.0,SE,8.1,-,N/A,,Partly Cloudy,130,2013-03-12 15:56:00
8:16 AM,33.8,26.6,75,29.81,10.0,SE,10.4,-,N/A,,Partly Cloudy,130,2013-03-12 16:16:00
8:36 AM,33.8,26.6,75,29.80,10.0,SE,11.5,-,N/A,,Partly Cloudy,130,2013-03-12 16:36:00
8:56 AM,33.8,28.4,81,29.80,10.0,SE,10.4,-,N/A,,Partly Cloudy,130,2013-03-12 16:56:00
9:16 AM,35.6,28.4,75,29.79,10.0,ESE,12.7,-,N/A,,Partly Cloudy,120,2013-03-12 17:16:00
9:36 AM,35.6,30.2,81,29.79,10.0,ESE,12.7,-,N/A,,Partly Cloudy,110,2013-03-12 17:36:00
9:56 AM,35.6,28.4,75,29.79,10.0,ESE,11.5,-,N/A,,Scattered Clouds,120,2013-03-12 17:56:00
10:16 AM,37.4,26.6,65,29.79,10.0,ESE,10.4,-,N/A,,Scattered Clouds,110,2013-03-12 18:16:00
10:36 AM,37.4,26.6,65,29.79,10.0,ESE,8.1,-,N/A,,Scattered Clouds,110,2013-03-12 18:36:00
10:56 AM,37.4,28.4,70,29.78,10.0,SE,9.2,-,N/A,,Scattered Clouds,130,2013-03-12 18:56:00
11:16 AM,37.4,28.4,70,29.78,10.0,SE,8.1,-,N/A,,Scattered Clouds,130,2013-03-12 19:16:00
11:36 AM,39.2,28.4,65,29.77,10.0,SE,6.9,-,N/A,,Scattered Clouds,130,2013-03-12 19:36:00
11:56 AM,39.2,26.6,61,29.77,10.0,SE,6.9,-,N/A,,Scattered Clouds,130,2013-03-12 19:56:00
12:16 PM,39.2,26.6,61,29.77,10.0,SE,6.9,-,N/A,,Scattered Clouds,140,2013-03-12 20:16:00
12:36 PM,39.2,26.6,61,29.77,10.0,SE,5.8,-,N/A,,Scattered Clouds,140,2013-03-12 20:36:00
12:56 PM,39.2,26.6,61,29.77,10.0,SE,5.8,-,N/A,,Scattered Clouds,130,2013-03-12 20:56:00
1:16 PM,41.0,26.6,57,29.76,10.0,ESE,8.1,-,N/A,,Scattered Clouds,120,2013-03-12 21:16:00
1:36 PM,41.0,26.6,57,29.76,10.0,ESE,8.1,-,N/A,,Scattered Clouds,120,2013-03-12 21:36:00
1:56 PM,42.8,24.8,49,29.75,10.0,ESE,6.9,-,N/A,,Scattered Clouds,110,2013-03-12 21:56:00
2:16 PM,41.0,24.8,53,29.75,10.0,ESE,5.8,-,N/A,,Scattered Clouds,120,2013-03-12 22:16:00
2:36 PM,41.0,24.8,53,29.74,10.0,ESE,6.9,-,N/A,,Scattered Clouds,110,2013-03-12 22:36:00
2:56 PM,41.0,24.8,53,29.74,10.0,ESE,9.2,-,N/A,,Scattered Clouds,120,2013-03-12 22:56:00
3:16 PM,41.0,24.8,53,29.73,10.0,East,9.2,-,N/A,,Overcast,100,2013-03-12 23:16:00
3:36 PM,41.0,23.0,49,29.73,10.0,ESE,9.2,-,N/A,,Overcast,110,2013-03-12 23:36:00
3:56 PM,41.0,23.0,49,29.72,10.0,ESE,8.1,-,N/A,,Overcast,120,2013-03-12 23:56:00
4:16 PM,41.0,23.0,49,29.72,10.0,ESE,5.8,-,N/A,,Overcast,110,2013-03-13 00:16:00
4:36 PM,41.0,23.0,49,29.71,10.0,East,4.6,-,N/A,,Overcast,90,2013-03-13 00:36:00
4:56 PM,41.0,24.8,53,29.71,10.0,ENE,3.5,-,N/A,,Overcast,60,2013-03-13 00:56:00
5:16 PM,39.2,24.8,56,29.71,10.0,ENE,5.8,-,N/A,,Overcast,70,2013-03-13 01:16:00
5:36 PM,39.2,21.2,49,29.70,10.0,East,5.8,-,N/A,,Overcast,80,2013-03-13 01:36:00
5:56 PM,39.2,23.0,52,29.70,10.0,East,5.8,-,N/A,,Overcast,100,2013-03-13 01:56:00
6:16 PM,39.2,23.0,52,29.70,10.0,SSE,5.8,-,N/A,,Overcast,150,2013-03-13 02:16:00
6:36 PM,39.2,24.8,56,29.69,10.0,East,3.5,-,N/A,,Overcast,90,2013-03-13 02:36:00
6:56 PM,39.2,23.0,52,29.69,10.0,ESE,5.8,-,N/A,,Overcast,110,2013-03-13 02:56:00
7:16 PM,37.4,24.8,60,29.69,10.0,NNE,8.1,-,N/A,,Overcast,30,2013-03-13 03:16:00
7:36 PM,37.4,24.8,60,29.69,10.0,NE,8.1,-,N/A,,Overcast,40,2013-03-13 03:36:00
7:56 PM,37.4,24.8,60,29.69,10.0,South,5.8,-,N/A,,Overcast,170,2013-03-13 03:56:00
8:16 PM,37.4,23.0,56,29.69,10.0,South,3.5,-,N/A,,Overcast,180,2013-03-13 04:16:00
8:36 PM,35.6,24.8,65,29.69,10.0,South,5.8,-,N/A,,Overcast,170,2013-03-13 04:36:00
8:56 PM,35.6,24.8,65,29.69,10.0,SW,4.6,-,N/A,,Overcast,220,2013-03-13 04:56:00
9:56 PM,33.8,28.4,81,29.71,10.0,West,4.6,-,N/A,,Overcast,270,2013-03-13 05:56:00
10:16 PM,33.8,28.4,81,29.71,10.0,WNW,4.6,-,N/A,,Overcast,300,2013-03-13 06:16:00
10:36 PM,32.0,28.4,87,29.71,10.0,Calm,Calm,-,0.01,,Overcast,0,2013-03-13 06:36:00
10:56 PM,32.0,28.4,87,29.72,10.0,Calm,Calm,-,0.01,,Overcast,0,2013-03-13 06:56:00
11:16 PM,32.0,28.4,87,29.72,1.5,Calm,Calm,-,N/A,,Overcast,0,2013-03-13 07:16:00
11:36 PM,32.0,28.4,87,29.72,2.0,Calm,Calm,-,0.01,,Overcast,0,2013-03-13 07:36:00
11:56 PM,32.0,28.4,87,29.72,1.8,East,5.8,-,0.01,,Overcast,100,2013-03-13 07:56:00